Location: Asheville, NC
(35.6000°N, 82.5500°W)
Time: 11:02:11
(UTC-04:00)

UWE-3 - Pass Details

Date: 17 February 2018
Orbit: 587 x 683 km, 97.6° (Epoch: 24 May)

Event Time Altitude Azimuth Distance (km) Brightness Sun altitude
Rises 19:39:01 0° 178° (S) 3,024 ? -17.9°
Reaches altitude 10° 19:41:18 10° 183° (S) 2,115 ? -18.3°
Maximum altitude 19:45:51 54° 260° (W) 831 ? -19.3°
Drops below altitude 10° 19:50:23 10° 338° (NNW) 2,117 ? -20.2°
Sets 19:52:40 0° 343° (NNW) 3,027 ? -20.6°
